Location: Dulzura
(32.6442°N, 116.7814°W)
Time: 19:12:44
(UTC+00:00)

ATLAS 5 CENTAUR R/B - Pass Details

Date: 07 December 2021
Orbit: 497 x 1159 km, 63.4° (Epoch: 04 January)

Event Time Altitude Azimuth Distance (km) Brightness Sun altitude
Exits shadow 13:44:45 16° 292° (WNW) 1,426 2.7 -10.8°
Maximum altitude 13:45:46 17° 311° (NW) 1,378 2.8 -10.6°
Drops below altitude 10° 13:48:27 10° 353° (N) 1,829 3.7 -10.1°
Sets 13:51:27 0° 14° (NNE) 2,827 4.9 -9.5°
